Regional Weather Roundup
Issued by NWS Cleveland, OH

Home | Current Version | Previous Version | Text Only | Print | Product List | Glossary Off
Versions: 1 2 3 4 5 6 7 8 9 10 11 12 13 14 15 16 17 18 19 20 21 22 23 24 25 26 27 28 29 30 31 32 33 34 35 36 37 38 39 40 41 42 43 44 45 46 47 48 49 50

000
ASUS41 KCLE 111910
RWRCLE
OHIO REGIONAL WEATHER ROUNDUP
NATIONAL WEATHER SERVICE CLEVELAND, OH
300 PM EDT FRI JUL 11 2014

NOTE: "FAIR" INDICATES FEW OR NO CLOUDS BELOW 12,000 FEET WITH NO
SIGNIFICANT WEATHER AND/OR OBSTRUCTIONS TO VISIBILITY.

OHZ001>008-015>018-024>027-034-035-043-044-112000-
   NORTHWEST OHIO

CITY           SKY/WX    TMP DP  RH WIND       PRES   REMARKS
DEFIANCE       MOSUNNY   81  57  43 VRB7      30.21F
FINDLAY        SUNNY     80  56  43 VRB5      30.20F
TOLEDO EXPRESS MOSUNNY   78  56  46 VRB3      30.21S
TOLEDO EXEC    PTSUNNY   80  57  45 E6        30.21F
LIMA           PTSUNNY   80  58  46 SW9       30.21F
$$

OHZ009>014-019>023-028>033-038-089-112000-
   NORTHEAST OHIO

CITY           SKY/WX    TMP DP  RH WIND       PRES   REMARKS
CLE-HOPKINS    MOSUNNY   78  55  44 N8        30.22F
CLE-LAKEFRONT  SUNNY     75  61  61 NE12      30.19F
CUY CO. ARPT   PTSUNNY   79  57  47 N9        30.21F
LORAIN-ELYRIA  SUNNY     81  57  43 VRB6      30.21F
ASHTABULA      SUNNY     78  59  51 N5        30.22F
AKRON-CANTON   MOSUNNY   80  54  40 E5        30.21F
WOOSTER        SUNNY     82  57  42 SE8       30.21F
MANSFIELD      SUNNY     81  55  40 S5        30.22F
YOUNGSTOWN     PTSUNNY   80  57  45 CALM      30.21F
$$

OHZ042-051>053-060>062-070>072-077>081-112000-
  SOUTHWEST OHIO

CITY           SKY/WX    TMP DP  RH WIND       PRES   REMARKS
CINC-COVINGTON MOSUNNY   84  56  38 SW5       30.20F
CINC-LUNKEN    MOSUNNY   86  58  38 VRB5      30.19F
HAMILTON       MOSUNNY   84  58  40 VRB5      30.20F
DAYTON         PTSUNNY   80  57  45 W5        30.23S
WRIGHT-PAT AFB MOSUNNY   81  58  46 N3        30.21F
DAYTON GENERAL SUNNY     81  58  45 NW6       30.21F
WILMINGTON     PTSUNNY   79  56  45 CALM      30.21F
$$

OHZ036-037-039>041-045>050-054>059-063>069-073>076-082>088-112000-
  CENTRAL AND SOUTHEAST OHIO

CITY           SKY/WX    TMP DP  RH WIND       PRES   REMARKS
COLUMBUS       MOSUNNY   85  53  33 VRB3      30.19F
OSU AIRPORT    MOSUNNY   82  55  39 W5        30.20F
BOLTON FIELD   SUNNY     81  59  47 NW3       30.21F
RICKENBACK AFB SUNNY     85  45  25 S5        30.20F
NEWARK         SUNNY     82  56  40 E6        30.20F
MARION         SUNNY     80  53  39 CALM      30.21F
LANCASTER      SUNNY     83  56  39 CALM      30.21F
ZANESVILLE     MOSUNNY   81  56  42 NW6       30.21S
NEW PHILLY     SUNNY     82  59  45 VRB3      30.20F
$$



USA.gov is the U.S. government's official web portal to all federal, state and local government web resources and services.